Location: Basse Occidentale du Courleau
(48.3833°N, 4.8333°W)
Time: 19:17:25
(UTC+00:00)

ERS-1 Rocket - Pass Details

Date: 05 July 2020
Orbit: 752 x 758 km, 98.5° (Epoch: 05 August)

Event Time Altitude Azimuth Distance (km) Brightness Sun altitude
Exits shadow 20:56:50 - 134° (SE) 2,607 5.0 -5.2°
Reaches altitude 10° 20:57:42 10° 130° (SE) 2,286 4.8 -5.3°
Maximum altitude 21:02:16 36° 65° (ENE) 1,197 3.9 -5.8°
Drops below altitude 10° 21:06:51 10° 1° (N) 2,299 6.2 -6.4°
Sets 21:09:18 0° 353° (N) 3,228 7.2 -6.7°
